Location: Madison
(43.0730°N, 89.3819°W)
Time: 20:24:02
(UTC-05:00)

ISS - Visible Passes

Search period start: 19 October 2019 00:00
Search period end: 29 October 2019 00:00
Orbit: 411 x 421 km, 51.6° (Epoch: 19 October)

Date Brightness Start Highest point End Pass type
(mag) Time Alt. Az. Time Alt. Az. Time Alt. Az.
23 Oct -1.8 06:46:45 10° SSW 06:49:46 31° SE 06:52:47 10° ENE visible
24 Oct -1.1 05:58:53 10° S 06:01:19 19° SE 06:03:44 10° E visible
25 Oct -0.6 05:11:58 10° SE 05:12:54 11° SE 05:13:50 10° ESE visible
25 Oct -3.7 06:45:45 10° SW 06:49:08 83° SE 06:52:30 10° ENE visible
26 Oct -2.9 05:58:24 19° SSW 06:00:32 48° SE 06:03:48 10° ENE visible
27 Oct -1.9 05:12:21 28° SE 05:12:21 28° SE 05:14:56 10° ENE visible
27 Oct -3.2 06:45:23 10° W 06:48:37 43° NNW 06:51:52 10° NE visible
28 Oct -3.8 05:59:03 44° W 05:59:54 66° NNW 06:03:16 10° NE visible
